Weather in Goleniow

Poland     53°33′49″N   14°49′44″E
temp.,
°C
wind,
m/s
gust,
m/s
humid.,
%
clouds,
%
prec.,
mm/h
press.,
hPa
HPBL,
m
25 february, thu
thu2501:00+9sw23934 0.0 102839
04:00+8s23934 0.0 102758
07:00+8s36942 0.0 1026150
10:00+12sw37810 0.0 1025296
13:00+16sw48700 0.0 1025508
16:00+15wsw38730 0.0 1024730
19:00+11wsw38900 0.0 1025213
22:00+10w3109133 0.0 1026292
26 february, fri
fri2601:00+8wnw399553 0.0 1027377
04:00+6wnw298989 0.0 1027379
07:00+6w398594 0.0 1028431
10:00+7w4106893 0.0 1028684
13:00+10wnw5105580 0.0 10281341
16:00+8wnw5106739 0.0 10271337
19:00+7wnw4107562 0.1 10281003
22:00+5wnw4108277 0.0 1029567
27 february, sat
sat2701:00+4wnw5128856 0.0 1029587
04:00+3nw4119145 0.0 1030546
07:00+3nw489072 0.0 1031528
10:00+4nw368596 0.0 1032455
13:00+7nw367695 0.0 1034543
16:00+7nw36744 0.0 1033588
19:00+2nnw22842 0.0 103463
22:00+1nw12840 0.0 103522
28 february, sun
sun2801:00+1wnw12880 0.0 103622
04:000wsw11940 0.0 103522
07:000wsw12940 0.0 103523
10:00+6w13700 0.0 1035295
13:00+9wnw23620 0.0 1035637
16:00+9wnw13710 0.0 1034595
19:00+4wnw11895 0.0 103422
22:00+3w119249 0.0 103522
1 march, mon
mon101:00+2wsw119329 0.0 103522
04:00+2w11940 0.0 103422
07:00+1wsw00940 0.0 103422
10:00+7sse00750 0.0 1035237
13:00+10s11590 0.0 1035524
16:00+10s12630 0.0 1034589
19:00+5sse12830 0.0 103422
22:00+4sse22870 0.0 103522